YAOGAN-21

Last updated on Wed Mar 11 2026 00:02:35 GMT+0000 (Coordinated Universal Time)

1 40143U 14053A 26069.51849295 .00012877 00000+0 51843-3 0 9999 2 40143 97.1615 114.0247 0010135 83.9398 276.2995 15.24949798639918
UTC large
Height (km)
Speed (km/s)
/
Latitude / Longitude
Inclination (degrees)
Orbital Period (minutes)
Azimuth
Elevation
Range (km)
Doppler Factor

Next 0 passes for location: London (51.5072 / 0.1276)

Sorry there are no passes over London.